ES8TJM-10 Weather Reports


Display with metric or nautical units.
time (UTC)temp
F
wind
direction
speed
MPH
gust
MPH
rain 1hr
in
rain 24hr
in
rain mn
in
humidity
%
barometer
mb
20260507092919 55 28 12.0 17.0 0.00 0.00 0.00 24 1014.3
20260507091804 54 50 12.0 17.0 0.00 0.00 0.00 25 1014.1
20260507090904 54 14 11.0 14.0 0.00 0.00 0.00 25 1014.1
20260507090217 54 36 11.0 14.0 0.00 0.00 0.00 25 1014.2
20260507085403 54 60 10.0 15.0 0.00 0.00 0.00 26 1014.1
20260507084503 53 29 10.0 12.0 0.00 0.00 0.00 27 1014.2
20260507083603 53 40 11.0 13.0 0.00 0.00 0.00 26 1014.0
20260507082703 53 48 10.0 16.0 0.00 0.00 0.00 27 1014.0
20260507081803 53 55 9.0 11.0 0.00 0.00 0.00 26 1014.2
20260507080903 52 46 8.0 12.0 0.00 0.00 0.00 26 1014.3
20260507080004 52 59 7.0 12.0 0.00 0.00 0.00 27 1014.2
20260507075403 53 73 8.0 12.0 0.00 0.00 0.00 28 1014.2
20260507074718 53 63 9.0 11.0 0.00 0.00 0.00 28 1014.3
20260507072704 52 60 5.0 8.0 0.00 0.00 0.00 31 1014.4
20260507071805 51 53 6.0 8.0 0.00 0.00 0.00 33 1014.5
20260507071118 51 51 7.0 8.0 0.00 0.00 0.00 34 1014.5
20260507070008 50 48 6.0 10.0 0.00 0.00 0.00 34 1014.5
20260507065403 50 51 5.0 8.0 0.00 0.00 0.00 37 1014.5
20260507064504 50 60 6.0 8.0 0.00 0.00 0.00 37 1014.5
20260507063603 49 39 7.0 8.0 0.00 0.00 0.00 38 1014.6
20260507062703 50 77 6.0 9.0 0.00 0.00 0.00 36 1014.5
20260507061803 51 96 6.0 7.0 0.00 0.00 0.00 37 1014.5
20260507060904 51 94 4.0 5.0 0.00 0.00 0.00 38 1014.6
20260507060003 50 81 5.0 6.0 0.00 0.00 0.00 38 1014.5
20260507055404 49 83 5.0 7.0 0.00 0.00 0.00 40 1014.5
20260507054503 48 83 5.0 5.0 0.00 0.00 0.00 42 1014.3
20260507053817 47 72 5.0 6.0 0.00 0.00 0.00 43 1014.4
20260507052704 46 78 5.0 7.0 0.00 0.00 0.00 45 1014.3
20260507051804 46 64 7.0 8.0 0.00 0.00 0.00 45 1014.4
20260507050903 45 50 7.0 8.0 0.00 0.00 0.00 45 1014.3
20260507050004 45 60 6.0 8.0 0.00 0.00 0.00 46 1014.3
20260507045403 45 54 7.0 9.0 0.00 0.00 0.00 46 1014.3
20260507044717 44 49 8.0 9.0 0.00 0.00 0.00 47 1014.3
20260507043603 44 46 7.0 9.0 0.00 0.00 0.00 50 1014.3
20260507042704 42 45 8.0 9.0 0.00 0.00 0.00 51 1014.1
20260507041803 42 45 8.0 10.0 0.00 0.00 0.00 53 1014.1
20260507040903 42 45 8.0 9.0 0.00 0.00 0.00 53 1014.0
20260507040005 41 48 9.0 11.0 0.00 0.00 0.00 54 1014.1
20260507035403 41 45 9.0 11.0 0.00 0.00 0.00 53 1014.1
20260507034717 41 45 9.0 10.0 0.00 0.00 0.00 54 1014.0
20260507033603 41 45 8.0 10.0 0.00 0.00 0.00 56 1014.0
20260507032703 40 42 7.0 8.0 0.00 0.00 0.00 57 1013.9
20260507031803 40 49 7.0 9.0 0.00 0.00 0.00 58 1013.9
20260507030903 40 45 6.0 7.0 0.00 0.00 0.00 59 1013.8
20260507030003 40 48 5.0 6.0 0.00 0.00 0.00 58 1013.9
20260507025403 40 46 5.0 6.0 0.00 0.00 0.00 58 1013.9
20260507024503 40 35 4.0 5.0 0.00 0.00 0.00 58 1013.9
20260507023603 40 45 6.0 6.0 0.00 0.00 0.00 58 1013.8
20260507022703 40 48 6.0 7.0 0.00 0.00 0.00 58 1014.0
20260507021803 40 45 6.0 7.0 0.00 0.00 0.00 57 1013.9
20260507020903 40 45 5.0 6.0 0.00 0.00 0.00 57 1014.0
20260507020003 40 45 5.0 6.0 0.00 0.00 0.00 57 1014.0
20260507015619 40 45 5.0 6.0 0.00 0.00 0.00 57 1013.9
20260507014503 40 45 6.0 7.0 0.00 0.00 0.00 56 1013.9
20260507013603 40 45 7.0 8.0 0.00 0.00 0.00 56 1013.8
20260507012703 40 45 8.0 9.0 0.00 0.00 0.00 55 1013.7
20260507011803 41 45 8.0 9.0 0.00 0.00 0.00 55 1014.1
20260507010903 41 45 8.0 8.0 0.00 0.00 0.00 54 1014.0
20260507010004 41 42 7.0 8.0 0.00 0.00 0.00 54 1013.9
20260507005618 41 45 6.0 8.0 0.00 0.00 0.00 54 1013.9
20260507004504 41 45 8.0 10.0 0.00 0.00 0.00 53 1013.9
20260507003603 41 48 9.0 10.0 0.00 0.00 0.00 53 1013.7
20260507002918 41 45 8.0 10.0 0.00 0.00 0.00 53 1013.8
20260507001803 41 45 8.0 10.0 0.00 0.00 0.00 52 1013.8
20260507000903 41 45 8.0 8.0 0.00 0.00 0.00 52 1013.8
20260507000219 41 45 8.0 11.0 0.00 0.00 0.00 52 1013.7
20260506235403 41 42 9.0 11.0 0.00 0.00 0.00 52 1013.7
20260506234504 42 45 10.0 11.0 0.00 0.00 0.00 52 1013.7
20260506233603 42 57 10.0 12.0 0.00 0.00 0.00 52 1013.6
20260506232703 42 52 11.0 12.0 0.00 0.00 0.00 51 1013.5
20260506232017 42 43 11.0 13.0 0.00 0.00 0.00 51 1013.5
20260506230903 42 45 12.0 15.0 0.00 0.00 0.00 51 1013.5
20260506230004 42 45 10.0 13.0 0.00 0.00 0.00 51 1013.6
20260506225403 42 49 10.0 13.0 0.00 0.00 0.00 51 1013.6
20260506224717 42 46 10.0 13.0 0.00 0.00 0.00 50 1013.6
20260506223603 43 48 11.0 14.0 0.00 0.00 0.00 49 1013.5
20260506222703 43 45 11.0 13.0 0.00 0.00 0.00 47 1013.4
20260506221803 43 45 12.0 15.0 0.00 0.00 0.00 47 1013.4
20260506220903 43 45 12.0 12.0 0.00 0.00 0.00 46 1013.3
20260506220004 43 45 12.0 15.0 0.00 0.00 0.00 46 1013.4
20260506215403 43 45 11.0 13.0 0.00 0.00 0.00 46 1013.3
20260506214719 43 45 11.0 12.0 0.00 0.00 0.00 46 1013.3
20260506213603 43 45 13.0 15.0 0.00 0.00 0.00 46 1013.3
20260506212703 44 45 12.0 13.0 0.00 0.00 0.00 45 1013.3
20260506211803 44 41 12.0 13.0 0.00 0.00 0.00 44 1013.3
20260506210903 44 49 11.0 15.0 0.00 0.00 0.00 44 1013.3
20260506210004 44 43 11.0 12.0 0.00 0.00 0.00 44 1013.3
20260506205617 44 43 11.0 12.0 0.00 0.00 0.00 44 1013.3
20260506204718 44 39 11.0 13.0 0.00 0.00 0.00 43 1013.3
20260506203603 44 42 11.0 14.0 0.00 0.00 0.00 44 1013.5
20260506202703 44 35 11.0 13.0 0.00 0.00 0.00 43 1013.4
20260506201803 44 34 14.0 16.0 0.00 0.00 0.00 43 1013.4
20260506200903 44 44 13.0 16.0 0.00 0.00 0.00 43 1013.4
20260506200217 45 44 13.0 16.0 0.00 0.00 0.00 42 1013.3
20260506195403 45 40 13.0 15.0 0.00 0.00 0.00 42 1013.3
20260506194503 45 42 13.0 15.0 0.00 0.00 0.00 41 1013.4
20260506193603 45 43 13.0 16.0 0.00 0.00 0.00 41 1013.3
20260506192703 45 41 14.0 16.0 0.00 0.00 0.00 41 1013.3
20260506191803 46 33 13.0 16.0 0.00 0.00 0.00 40 1013.2
20260506190903 46 35 12.0 15.0 0.00 0.00 0.00 39 1013.4
20260506190004 46 34 11.0 15.0 0.00 0.00 0.00 38 1013.5
20260506185403 46 33 11.0 13.0 0.00 0.00 0.00 37 1013.5
20260506184503 46 29 11.0 13.0 0.00 0.00 0.00 37 1013.5
20260506183604 47 34 11.0 13.0 0.00 0.00 0.00 34 1013.5
20260506182703 47 29 11.0 14.0 0.00 0.00 0.00 32 1013.5
20260506181803 47 29 11.0 12.0 0.00 0.00 0.00 30 1013.4
20260506181116 47 42 11.0 12.0 0.00 0.00 0.00 30 1013.4
20260506180004 48 35 12.0 16.0 0.00 0.00 0.00 30 1013.3
20260506175403 48 33 12.0 16.0 0.00 0.00 0.00 29 1013.3
20260506174717 48 27 13.0 16.0 0.00 0.00 0.00 27 1013.3
20260506173603 48 27 11.0 15.0 0.00 0.00 0.00 26 1013.2
20260506172703 49 27 12.0 15.0 0.00 0.00 0.00 24 1013.3
20260506171803 49 32 11.0 14.0 0.00 0.00 0.00 24 1013.3
20260506170903 49 30 12.0 14.0 0.00 0.00 0.00 26 1013.4
20260506170004 49 23 11.0 15.0 0.00 0.00 0.00 28 1013.4
20260506165403 49 11 12.0 15.0 0.00 0.00 0.00 28 1013.4
20260506164504 50 17 10.0 14.0 0.00 0.00 0.00 29 1013.4
20260506163603 50 7 10.0 13.0 0.00 0.00 0.00 28 1013.5
20260506162703 50 360 12.0 17.0 0.00 0.00 0.00 27 1013.4
20260506161803 50 1 12.0 15.0 0.00 0.00 0.00 26 1013.3
20260506160903 50 360 13.0 17.0 0.00 0.00 0.00 26 1013.2
20260506160217 50 2 15.0 18.0 0.00 0.00 0.00 25 1013.3
20260506155403 51 6 12.0 15.0 0.00 0.00 0.00 27 1013.2
20260506154504 51 3 14.0 17.0 0.00 0.00 0.00 26 1013.3
20260506153603 51 3 13.0 16.0 0.00 0.00 0.00 25 1013.5
20260506152917 51 360 16.0 20.0 0.00 0.00 0.00 24 1013.4
20260506151803 52 356 13.0 15.0 0.00 0.00 0.00 22 1013.5
20260506150903 52 360 13.0 17.0 0.00 0.00 0.00 19 1013.4
20260506150217 52 3 14.0 17.0 0.00 0.00 0.00 19 1013.6
20260506145619 52 3 15.0 17.0 0.00 0.00 0.00 19 1013.6
20260506144504 53 6 12.0 16.0 0.00 0.00 0.00 19 1013.7
20260506143603 53 359 15.0 17.0 0.00 0.00 0.00 20 1013.7
20260506142919 53 348 14.0 18.0 0.00 0.00 0.00 21 1013.7
20260506141803 52 353 15.0 17.0 0.00 0.00 0.00 22 1013.9
20260506140904 52 327 14.0 17.0 0.00 0.00 0.00 22 1013.9
20260506140004 52 347 15.0 17.0 0.00 0.00 0.00 23 1014.2
20260506135403 52 344 14.0 17.0 0.00 0.00 0.00 22 1014.0
20260506134717 52 338 14.0 17.0 0.00 0.00 0.00 22 1014.1
20260506133603 52 341 14.0 16.0 0.00 0.00 0.00 24 1014.3
20260506132703 53 324 14.0 17.0 0.00 0.00 0.00 26 1014.5
20260506131804 53 350 14.0 18.0 0.00 0.00 0.00 26 1014.3
20260506130903 53 350 13.0 17.0 0.00 0.00 0.00 26 1014.2
20260506130004 53 340 11.0 19.0 0.00 0.00 0.00 27 1014.3
20260506125404 53 331 14.0 19.0 0.00 0.00 0.00 26 1014.3
20260506124504 53 348 14.0 17.0 0.00 0.00 0.00 25 1014.3
20260506123603 53 336 13.0 17.0 0.00 0.00 0.00 22 1014.4
20260506122703 54 331 12.0 15.0 0.00 0.00 0.00 21 1014.5
20260506122017 53 331 12.0 15.0 0.00 0.00 0.00 21 1014.5
20260506121119 52 332 12.0 15.0 0.00 0.00 0.00 21 1014.5
20260506120004 52 318 13.0 16.0 0.00 0.00 0.00 19 1014.4
20260506115404 52 333 11.0 15.0 0.00 0.00 0.00 19 1014.5
20260506114503 52 327 11.0 14.0 0.00 0.00 0.00 18 1014.5
20260506113603 53 347 13.0 16.0 0.00 0.00 0.00 17 1014.2
20260506112703 54 334 9.0 15.0 0.00 0.00 0.00 16 1014.2
20260506111803 53 342 10.0 15.0 0.00 0.00 0.00 17 1014.3
20260506110904 53 331 10.0 15.0 0.00 0.00 0.00 16 1014.4
20260506110004 54 333 9.0 15.0 0.00 0.00 0.00 15 1014.4
20260506105403 53 352 9.0 15.0 0.00 0.00 0.00 16 1014.3
20260506104719 53 347 8.0 14.0 0.00 0.00 0.00 17 1014.4
20260506103603 53 330 12.0 16.0 0.00 0.00 0.00 17 1014.4
20260506102703 53 342 12.0 17.0 0.00 0.00 0.00 17 1014.6
20260506101804 53 324 11.0 16.0 0.00 0.00 0.00 19 1014.5
20260506100904 52 331 12.0 15.0 0.00 0.00 0.00 19 1014.6
20260506100004 52 345 14.0 17.0 0.00 0.00 0.00 20 1014.6
20260506095403 52 327 11.0 17.0 0.00 0.00 0.00 20 1014.7
20260506094504 52 332 14.0 17.0 0.00 0.00 0.00 21 1014.6
20260506093603 53 325 12.0 15.0 0.00 0.00 0.00 22 1014.5